Warning: Javascript must be enabled to use all the features on this page!


Page Loading - Please Wait...

* We've detected you're using a mobile device. Find our mobile dedicated web site here.
Click to hideNews Bulletins
Click to hide state-specific text
THREATENED-GAGE-NOTICE FOR MINNESOTA
05137500 - Rainy River at Wheeler's Point, MN will be discontinued Oct. 1, 2018

For more information please click on the "Questions about sites/data" link near the bottom of this page or call 763-783-3100.

See map of locations of threatened gage(s) nationally.


* IMPORTANT: Next Generation Station Page

USGS 05289800 MINNEHAHA CREEK AT HIAWATHA AVE. IN MINNEAPOLIS,MN

PROVISIONAL DATA SUBJECT TO REVISION

Click to hidestation-specific text
Minnehaha Creek Watershed District logo

Operated in cooperation with the Minnehaha Creek Watershed District

NEW: Context-oriented information about current and historical streamflow from USGS WaterWatch Dashboard.

For paddling the creek, the Minnehaha Creek Watershed District suggests a streamflow (also known as discharge or flow rate) between 75-150 cubic feet per second, depending on experience. More information is available from their web page here or at the link above.

Click on animated image to see the latest full size current video from site. Click on the Static Image to view the Frame Gallery.

       

Time-lapse video products are considered a proof of concept with no guarantee regarding product up time. Time-lapse videos can be viewed using Chrome, Firefox or Opera browser application on smartphone, tablet, desktop and laptop devices. Additional browser support for Safari and Internet Explorer may be added later.

Any use of trade, firm, or product names is for descriptive purposes only and does not imply endorsement by the U.S. Government.

Precipitation data are temporary and will only be displayed for 120 days. Time-series data or cumulative daily values will NOT be available for retrieval following the 120-day display period. Although the rainfall instrumentation will be calibrated at least annually, the temporary classification means that documented routine inspections and other quality assurance measures may not be performed that would make the data acceptable for archival, retrieval, or future use in general scientific or interpretive studies.

This station managed by the Mounds View Field Office.

Available Parameters Available Period
All 5 Available Parameters for this site
  
00010 Temperature, water 2010-10-01  2019-10-15
00045 Precipitation 2019-06-17  2019-10-15
00060 Discharge 2006-10-01  2019-10-15
00065 Gage height 2019-06-17  2019-10-15
00095 Specific cond at 25C 2010-10-01  2019-10-15

Graph
Graph w/ stats
Graph w/o stats
Graph w/ (up to 3) parms
Table
Tab-separated
Days  (7)
 

  -- or --
Begin date
 

End date
 

Summary of all available data for this site
Instantaneous-data availability statement
Discharge, cubic feet per second
TIMEOct 8Oct 9Oct 10Oct 11Oct 12Oct 13Oct 14Oct 15
00:00 CDT274P  280P  279P  293P  296P  295P  288P  285P  
00:05 CDT275P  280P  280P  291P  296P  291P  288P  283P  
00:10 CDT274P  280P  277P  291P  296P  291P  288P  282P  
00:15 CDT274P  280P  279P  291P  295P  295P  288P  283P  
00:20 CDT275P  282P  277P  293P  296P  295P  288P  283P  
00:25 CDT274P  280P  277P  291P  298P  295P  290P  283P  
00:30 CDT274P  280P  277P  290P  296P  293P  288P  283P  
00:35 CDT274P  280P  279P  293P  296P  293P  288P  285P  
00:40 CDT277P  280P  277P  293P  296P  291P  290P  285P  
00:45 CDT274P  280P  277P  291P  296P  295P  288P  285P  
00:50 CDT275P  279P  279P  291P  295P  295P  288P  285P  
00:55 CDT274P  280P  277P  293P  296P  291P  288P  285P  
01:00 CDT275P  279P  277P  291P  295P  293P  290P  283P  
01:05 CDT274P  279P  277P  293P  295P  293P  288P  282P  
01:10 CDT274P  280P  277P  291P  295P  293P  290P  283P  
01:15 CDT275P  280P  279P  291P  295P  291P  288P  285P  
01:20 CDT272P  279P  277P  295P  296P  293P  288P  285P  
01:25 CDT275P  280P  280P  295P  295P  295P  290P  283P  
01:30 CDT275P  282P  280P  293P  295P  295P  288P  283P  
01:35 CDT275P  279P  277P  291P  295P  295P  288P  283P  
01:40 CDT274P  280P  279P  293P  296P  295P  288P  283P  
01:45 CDT274P  280P  279P  293P  296P  295P  288P  283P  
01:50 CDT274P  279P  277P  295P  295P  295P  288P  282P  
01:55 CDT274P  279P  277P  295P  295P  293P  287P  283P  
02:00 CDT275P  280P  279P  296P  296P  291P  290P  285P  
02:05 CDT274P  280P  279P  295P  296P  293P  288P  282P  
02:10 CDT275P  279P  279P  295P  296P  293P  288P  283P  
02:15 CDT275P  279P  279P  295P  298P  293P  288P  285P  
02:20 CDT275P  280P  280P  298P  295P  295P  290P  285P  
02:25 CDT275P  280P  282P  295P  296P  295P  288P  283P  
02:30 CDT277P  279P  282P  298P  295P  293P  288P  283P  
02:35 CDT274P  282P  282P  296P  295P  293P  288P  285P  
02:40 CDT274P  280P  283P  296P  293P  295P  288P  282P  
02:45 CDT274P  279P  285P  298P  295P  293P  288P  287P  
02:50 CDT275P  280P  287P  298P  296P  295P  287P  287P  
02:55 CDT275P  279P  290P  298P  296P  295P  288P  287P  
03:00 CDT275P  280P  290P  296P  295P  295P  290P  288P  
03:05 CDT275P  280P  291P  296P  296P  293P  288P  290P  
03:10 CDT277P  280P  295P  296P  295P  293P  287P  290P  
03:15 CDT277P  279P  295P  300P  293P  293P  287P  295P  
03:20 CDT275P  280P  296P  296P  293P  293P  288P  296P  
03:25 CDT275P  279P  298P  298P  295P  295P  290P  298P  
03:30 CDT274P  280P  300P  296P  296P  293P  288P  298P  
03:35 CDT275P  279P  300P  298P  296P  293P  287P  300P  
03:40 CDT274P  280P  300P  296P  295P  293P  287P  298P  
03:45 CDT275P  277P  300P  298P  296P  295P  287P  301P  
03:50 CDT275P  280P  300P  298P  295P  291P  287P  300P  
03:55 CDT275P  282P  298P  296P  295P  293P  288P  300P  
04:00 CDT275P  282P  300P  296P  295P  293P  287P  298P  
04:05 CDT274P  279P  298P  298P  295P  291P  288P  298P  
04:10 CDT274P  280P  298P  298P  293P  295P  288P  298P  
04:15 CDT277P  280P  298P  300P  295P  291P  288P  298P  
04:20 CDT275P  277P  298P  298P  295P  291P  288P  296P  
04:25 CDT274P  279P  296P  298P  293P  295P  288P  295P  
04:30 CDT275P  279P  298P  298P  296P  291P  288P  296P  
04:35 CDT275P  280P  298P  300P  293P  293P  287P  300P  
04:40 CDT275P  280P  298P  298P  296P  293P  288P  296P  
04:45 CDT275P  280P  296P  300P  295P  293P  287P  296P  
04:50 CDT275P  280P  298P  298P  295P  291P  288P  296P  
04:55 CDT274P  280P  298P  298P  293P  290P  288P  296P  
05:00 CDT275P  282P  298P  303P  293P  291P  288P  296P  
05:05 CDT274P  280P  298P  298P  293P  293P  288P  296P  
05:10 CDT277P  282P  298P  300P  295P  295P  288P  296P  
05:15 CDT275P  279P  298P  298P  295P  293P  287P  300P  
05:20 CDT274P  280P  300P  300P  295P  293P  287P  298P  
05:25 CDT275P  282P  298P  301P  295P  293P  287P  298P  
05:30 CDT275P  279P  296P  300P  293P  291P  287P  298P  
05:35 CDT274P  279P  300P  300P  295P  293P  288P  298P  
05:40 CDT274P  280P  298P  301P  295P  293P  288P  298P  
05:45 CDT277P  280P  300P  300P  293P  293P  287P  298P  
05:50 CDT277P  280P  298P  300P  293P  295P  285P  296P  
05:55 CDT277P  279P  300P  300P  295P  293P  288P  296P  
06:00 CDT275P  280P  298P  300P  295P  293P  285P  300P  
06:05 CDT274P  280P  298P  300P  295P  291P  288P  296P  
06:10 CDT274P  280P  300P  303P  295P  293P  287P  298P  
06:15 CDT274P  279P  301P  300P  295P  293P  285P  298P  
06:20 CDT275P  280P  300P  303P  293P  295P  288P  296P  
06:25 CDT275P  280P  300P  301P  295P  293P  287P  298P  
06:30 CDT275P  282P  300P  301P  295P  291P  288P  296P  
06:35 CDT274P  280P  303P  300P  293P  293P  288P  300P  
06:40 CDT274P  279P  298P  301P  295P  295P  290P  300P  
06:45 CDT277P  282P  298P  300P  295P  291P  287P  298P  
06:50 CDT277P  280P  301P  301P  295P  293P  283P  300P  
06:55 CDT274P  280P  298P  300P  295P  293P  285P  298P  
07:00 CDT275P  280P  300P  300P  293P  293P  287P  298P  
07:05 CDT277P  282P  301P  303P  293P  291P  287P  298P  
07:10 CDT274P  282P  301P  301P  295P  291P  285P  296P  
07:15 CDT275P  282P  303P  301P  293P  293P  285P  298P  
07:20 CDT277P  280P  301P  301P  296P  295P  285P  298P  
07:25 CDT275P  282P  301P  300P  295P  291P  287P  298P  
07:30 CDT275P  280P  301P  300P  293P  291P  287P  300P  
07:35 CDT272P  282P  301P  301P  295P  290P  287P  296P  
07:40 CDT275P  280P  301P  301P  291P  291P  288P  296P  
07:45 CDT277P  279P  300P  301P  295P  293P  287P  298P  
07:50 CDT274P  280P  301P  300P  293P  293P  287P  295P  
07:55 CDT277P  280P  301P  300P  293P  293P  287P  298P  
08:00 CDT275P  282P  300P  300P  293P  293P  287P  296P  
08:05 CDT275P  277P  300P  300P  293P  291P  287P   
08:10 CDT274P  280P  300P  300P  293P  295P  287P   
08:15 CDT275P  280P  298P  300P  291P  295P  288P   
08:20 CDT275P  279P  298P  300P  291P  293P  287P   
08:25 CDT274P  280P  300P  300P  295P  293P  285P   
08:30 CDT275P  280P  298P  300P  293P  291P  287P   
08:35 CDT275P  280P  298P  300P  295P  295P  287P   
08:40 CDT277P  280P  301P  301P  293P  295P  287P   
08:45 CDT275P  280P  300P  300P  293P  291P  287P   
08:50 CDT277P  279P  300P  301P  296P  293P  285P   
08:55 CDT275P  280P  300P  300P  293P  291P  287P   
09:00 CDT277P  280P  300P  300P  293P  291P  287P   
09:05 CDT275P  279P  298P  298P  295P  293P  287P   
09:10 CDT275P  280P  300P  301P  295P  291P  287P   
09:15 CDT274P  280P  300P  300P  295P  291P  287P   
09:20 CDT275P  280P  296P  300P  293P  293P  287P   
09:25 CDT277P  280P  298P  300P  293P  291P  287P   
09:30 CDT277P  280P  298P  300P  293P  291P  285P   
09:35 CDT275P  280P  296P  300P  295P  293P  287P   
09:40 CDT275P  280P  298P  298P  295P  291P  287P   
09:45 CDT277P  282P  301P  300P  295P  293P  288P   
09:50 CDT277P  279P  298P  300P  295P  291P  285P   
09:55 CDT277P  279P  300P  300P  295P  293P  285P   
10:00 CDT275P  279P  298P  300P  296P  291P  287P   
10:05 CDT277P  282P  296P  300P  291P  291P  288P   
10:10 CDT275P  282P  296P  300P  291P  293P  285P   
10:15 CDT277P  282P  296P  300P  291P  291P  287P   
10:20 CDT275P  280P  298P  301P  293P  291P  285P   
10:25 CDT275P  280P  295P  300P  295P  293P  285P   
10:30 CDT279P  279P  296P  300P  295P  293P  285P   
10:35 CDT275P  279P  296P  300P  291P  293P  283P   
10:40 CDT277P  280P  295P  301P  293P  291P  283P   
10:45 CDT275P  282P  296P  298P  291P  291P  285P   
10:50 CDT275P  280P  296P  300P  295P  291P  287P   
10:55 CDT275P  279P  296P  298P  293P  293P  288P   
11:00 CDT277P  280P  296P  301P  293P  291P  285P   
11:05 CDT275P  279P  296P  300P  293P  290P  287P   
11:10 CDT279P  280P  295P  298P  295P  290P  285P   
11:15 CDT277P  279P  295P  298P  295P  291P  283P   
11:20 CDT277P  279P  296P  298P  295P  291P  285P   
11:25 CDT279P  279P  295P  298P  295P  291P  287P   
11:30 CDT277P  279P  295P  300P  293P  290P  287P   
11:35 CDT277P  280P  293P  300P  291P  291P  287P   
11:40 CDT279P  279P  293P  300P  293P  291P  285P   
11:45 CDT275P  282P  293P  298P  291P  291P  285P   
11:50 CDT277P  280P  296P  303P  295P  291P  287P   
11:55 CDT275P  279P  293P  300P  291P  291P  285P   
12:00 CDT277P  280P  293P  300P  295P  293P  287P   
12:05 CDT277P  280P  293P  300P  291P  295P  285P   
12:10 CDT277P  279P  293P  300P  295P  290P  285P   
12:15 CDT275P  279P  291P  300P  295P  291P  287P   
12:20 CDT275P  280P  293P  301P  293P  293P  287P   
12:25 CDT277P  280P  293P  298P  293P  291P  287P   
12:30 CDT277P  280P  293P  300P  293P  293P  287P   
12:35 CDT277P  282P  293P  300P  295P  291P  285P   
12:40 CDT277P  277P  291P  300P  293P  291P  287P   
12:45 CDT277P  280P  293P  300P  293P  290P  283P   
12:50 CDT279P  280P  295P  300P  293P  291P  282P   
12:55 CDT279P  280P  293P  298P  293P  293P  285P   
13:00 CDT277P  280P  293P  300P  293P  290P  285P   
13:05 CDT277P  279P  291P  300P  293P  291P  285P   
13:10 CDT275P  280P  293P  298P  295P  293P  285P   
13:15 CDT277P  282P  290P  300P  295P  291P  285P   
13:20 CDT279P  282P  293P  300P  295P  291P  287P   
13:25 CDT277P  280P  293P  296P  295P  290P  285P   
13:30 CDT275P  280P  291P  298P  295P  290P  287P   
13:35 CDT277P  280P  291P  300P  293P  291P  287P   
13:40 CDT279P  282P  293P  300P  293P  290P  287P   
13:45 CDT277P  280P  290P  300P  295P  291P  285P   
13:50 CDT279P  280P  293P  300P  295P  293P  287P   
13:55 CDT279P  280P  290P  298P  293P  291P  287P   
14:00 CDT279P  282P  293P  300P  295P  290P  287P   
14:05 CDT277P  282P  291P  298P  295P  290P  287P   
14:10 CDT279P  282P  291P  300P  295P  291P  285P   
14:15 CDT275P  282P  291P  298P  293P  291P  285P   
14:20 CDT277P  282P  291P  300P  295P  291P  287P   
14:25 CDT275P  283P  291P  298P  296P  293P  287P   
14:30 CDT280P  280P  290P  300P  293P  291P  288P   
14:35 CDT277P  282P  290P  300P  293P  290P  285P   
14:40 CDT279P  280P  290P  298P  293P  293P  285P   
14:45 CDT277P  282P  290P  300P  291P  290P  285P   
14:50 CDT277P  279P  290P  296P  295P  290P  287P   
14:55 CDT277P  280P  290P  298P  295P  291P  287P   
15:00 CDT275P  280P  290P  300P  293P  290P  285P   
15:05 CDT279P  282P  290P  298P  293P  290P  287P   
15:10 CDT277P  280P  290P  298P  295P  293P  285P   
15:15 CDT277P  282P  288P  300P  295P  290P  285P   
15:20 CDT279P  282P  290P  301P  293P  290P  285P   
15:25 CDT279P  280P  290P  300P  293P  293P  285P   
15:30 CDT277P  280P  291P  300P  296P  290P  285P   
15:35 CDT279P  282P  288P  298P  296P  290P  285P   
15:40 CDT279P  279P  290P  298P  293P  291P  285P   
15:45 CDT280P  280P  291P  298P  295P  293P  285P   
15:50 CDT280P  280P  290P  300P  295P  290P  285P   
15:55 CDT279P  280P  290P  300P  293P  290P  287P   
16:00 CDT279P  279P  290P  298P  295P  290P  285P   
16:05 CDT279P  280P  291P  300P  293P  290P  287P   
16:10 CDT279P  282P  290P  298P  295P  290P  285P   
16:15 CDT279P  282P  290P  300P  296P  293P  285P   
16:20 CDT275P  279P  290P  300P  293P  291P  285P   
16:25 CDT277P  280P  288P  300P  295P  290P  285P   
16:30 CDT279P  280P  290P  296P  296P  290P  287P   
16:35 CDT279P  280P  290P  296P  293P  291P  285P   
16:40 CDT279P  280P  290P  298P  293P  291P  285P   
16:45 CDT279P  280P  290P  298P  293P  288P  285P   
16:50 CDT277P  280P  291P  300P  295P  290P  287P   
16:55 CDT279P  280P  290P  300P  293P  290P  287P   
17:00 CDT277P  279P  291P  298P  293P  291P  285P   
17:05 CDT279P  282P  291P  300P  293P  290P  285P   
17:10 CDT279P  282P  288P  296P  293P  290P  285P   
17:15 CDT279P  282P  290P  298P  293P  293P  283P   
17:20 CDT279P  280P  291P  298P  295P  290P  285P   
17:25 CDT279P  280P  288P  300P  291P  291P  287P   
17:30 CDT279P  282P  290P  300P  295P  290P  283P   
17:35 CDT277P  282P  288P  300P  295P  291P  287P   
17:40 CDT277P  280P  290P  295P  295P  290P  285P   
17:45 CDT279P  282P  290P  298P  293P  291P  283P   
17:50 CDT277P  280P  290P  300P  295P  291P  287P   
17:55 CDT277P  280P  288P  296P  291P  290P  285P   
18:00 CDT277P  282P  290P  298P  293P  293P  287P   
18:05 CDT279P  282P  290P  298P  295P  290P  285P   
18:10 CDT277P  280P  288P  298P  295P  291P  288P   
18:15 CDT277P  280P  291P  296P  295P  288P  287P   
18:20 CDT277P  279P  288P  296P  293P  290P  287P   
18:25 CDT279P  279P  288P  296P  296P  291P  287P   
18:30 CDT279P  280P  290P  298P  293P  291P  285P   
18:35 CDT279P  282P  291P  298P  291P  290P  285P   
18:40 CDT275P  279P  291P  298P  293P  290P  287P   
18:45 CDT277P  280P  290P  295P  293P  291P  285P   
18:50 CDT275P  280P  288P  298P  293P  288P  287P   
18:55 CDT277P  279P  290P  296P  296P  290P  285P   
19:00 CDT279P  280P  291P  296P  295P  291P  285P   
19:05 CDT279P  279P  288P  296P  295P  290P  287P   
19:10 CDT279P  279P  290P  298P  293P  288P  285P   
19:15 CDT277P  279P  290P  298P  295P  290P  285P   
19:20 CDT279P  279P  290P  296P  296P  290P  287P   
19:25 CDT279P  279P  288P  296P  293P  290P  287P   
19:30 CDT277P  280P  288P  298P  293P  288P  285P   
19:35 CDT277P  279P  290P  298P  295P  290P  285P   
19:40 CDT277P  279P  290P  296P  293P  288P  287P   
19:45 CDT277P  279P  290P  298P  293P  290P  285P   
19:50 CDT279P  280P  291P  296P  296P  290P  285P   
19:55 CDT277P  282P  290P  298P  293P  290P  283P   
20:00 CDT277P  279P  290P  298P  295P  291P  287P   
20:05 CDT279P  279P  291P  298P  295P  290P  287P   
20:10 CDT279P  279P  288P  298P  295P  290P  285P   
20:15 CDT279P  280P  290P  296P  293P  290P  285P   
20:20 CDT279P  280P  290P  296P  295P  291P  285P   
20:25 CDT277P  279P  291P  298P  293P  288P  285P   
20:30 CDT282P  279P  291P  298P  296P  290P  283P   
20:35 CDT280P  280P  291P  300P  296P  290P  287P   
20:40 CDT280P  279P  291P  298P  295P  288P  285P   
20:45 CDT279P  280P  291P  298P  295P  290P  283P   
20:50 CDT279P  279P  291P  296P  293P  291P  285P   
20:55 CDT280P  279P  288P  296P  295P  288P  285P   
21:00 CDT279P  280P  290P  298P  293P  291P  285P   
21:05 CDT280P  280P  291P  298P  293P  288P  283P   
21:10 CDT280P  279P  290P  296P  295P  287P  285P   
21:15 CDT282P  280P  290P  296P  295P  288P  283P   
21:20 CDT280P  279P  288P  296P  295P  288P  287P   
21:25 CDT280P  279P  290P  296P  293P  290P  287P   
21:30 CDT280P  279P  291P  298P  295P  290P  285P   
21:35 CDT280P  277P  291P  296P  293P  288P  285P   
21:40 CDT280P  280P  291P  296P  293P  288P  287P   
21:45 CDT280P  279P  291P  296P  293P  290P  285P   
21:50 CDT280P  280P  290P  298P  295P  290P  285P   
21:55 CDT279P  279P  291P  300P  293P  290P  283P   
22:00 CDT282P  279P  291P  296P  293P  288P  287P   
22:05 CDT279P  279P  291P  296P  295P  290P  285P   
22:10 CDT280P  280P  291P  296P  293P  288P  285P   
22:15 CDT282P  280P  291P  298P  295P  290P  283P   
22:20 CDT280P  280P  291P  296P  295P  290P  287P   
22:25 CDT279P  279P  290P  298P  295P  290P  285P   
22:30 CDT279P  279P  291P  293P  293P  291P  283P   
22:35 CDT279P  279P  291P  296P  293P  290P  285P   
22:40 CDT279P  279P  291P  296P  293P  288P  283P   
22:45 CDT282P  279P  291P  296P  295P  287P  283P   
22:50 CDT280P  279P  291P  296P  293P  291P  283P   
22:55 CDT279P  277P  291P  298P  296P  288P  283P   
23:00 CDT280P  279P  290P  296P  295P  288P  283P   
23:05 CDT280P  279P  290P  296P  295P  290P  285P   
23:10 CDT280P  280P  291P  298P  295P  290P  285P   
23:15 CDT280P  279P  291P  295P  293P  287P  283P   
23:20 CDT282P  277P  291P  298P  293P  290P  285P   
23:25 CDT279P  280P  291P  298P  295P  288P  283P   
23:30 CDT280P  279P  290P  298P  295P  290P  285P   
23:35 CDT279P  279P  288P  295P  293P  288P  285P   
23:40 CDT282P  279P  293P  296P  295P  288P  285P   
23:45 CDT280P  280P  290P  296P  295P  288P  282P   
23:50 CDT280P  280P  293P  296P  295P  287P  287P   
23:55 CDT280P  279P  291P  296P  295P  288P  285P   
COUNT28828828828828828828897
MAX282283303303298295290301
MIN272277277290291287282282

Explanation
  P  Provisional data subject to revision.